Temp
14 15 15 15 15 16 16 16 16 16 16 16 16 16 16 16 16 16 16 16 16 17 16 16 16 16 17 17 16 15 11 12 14 12 14 14 14 14 14 14 13 14 14 14 14
14 15 15 15 15 16 16 16 16 16 16 17 16 16 16 16 16 16 16 16 16 17 17 17 17 17 17 16 16 12 11 13 13 13 14 14 13 14 13 13 13 14 14 14 13
15 15 15 16 16 16 16 16 16 16 17 16 16 16 16 16 16 17 17 17 17 17 17 17 17 17 16 16 15 13 13 13 14 15 14 14 13 14 12 11 14 15 15 14 13
15 16 16 16 16 16 16 16 17 17 16 16 16 16 16 16 16 17 17 17 17 17 17 17 17 16 14 15 15 14 14 14 15 14 14 13 14 13 13 15 16 16 15 14 14
15 16 16 16 16 16 16 17 17 16 16 16 16 16 16 16 17 17 17 17 17 17 16 16 16 16 15 14 14 14 14 14 15 14 14 13 12 12 13 16 15 14 15 15 14
15 16 16 16 17 17 17 17 16 16 16 16 16 16 16 15 17 17 17 17 17 17 17 16 17 16 15 14 14 14 14 14 14 13 13 12 12 12 16 16 16 14 14 14 14
15 16 16 16 17 17 17 16 16 16 16 16 16 16 16 17 17 17 17 17 17 17 16 16 16 16 15 14 14 14 14 12 12 13 12 12 11 9 16 15 15 14 13 13 14
15 16 16 17 16 17 17 17 16 16 16 16 16 16 17 16 16 16 16 16 16 16 16 16 16 16 15 14 13 13 12 13 14 12 13 13 13 14 16 14 15 14 14 13 13
15 16 16 16 17 17 16 16 16 16 16 16 16 16 16 16 16 16 16 16 16 16 16 16 15 14 14 12 11 10 13 13 12 11 12 11 12 12 15 13 13 14 14 14 13
15 16 16 17 17 17 17 16 16 16 16 16 15 15 16 16 16 16 16 16 16 15 15 15 14 10 9 11 13 14 14 13 12 13 11 11 10 12 13 14 13 14 14 13 13
16 16 16 17 17 17 17 16 16 15 15 17 16 16 16 16 16 16 15 15 15 15 13 13 12 12 12 11 13 13 13 12 11 12 11 9 8 11 13 11 10 11 11 12 13
16 16 16 17 17 17 17 16 16 15 14 16 15 15 16 16 15 15 15 15 14 13 13 12 11 13 12 11 13 12 12 10 10 11 11 9 9 11 12 10 11 11 10 11 12
16 16 17 17 16 16 16 16 15 14 12 14 15 15 15 15 15 15 15 15 14 13 12 12 14 11 13 12 12 11 11 11 12 10 9 8 8 10 12 11 13 12 12 12 12
15 16 16 16 16 16 16 15 14 13 10 14 14 14 14 15 14 14 14 14 13 13 11 11 11 12 12 12 10 12 10 11 11 10 10 9 10 9 11 9 10 12 12 12 11
15 15 16 16 15 15 15 15 14 13 12 15 14 14 14 14 14 13 14 14 13 13 13 13 11 11 11 11 10 12 11 11 10 9 8 8 8 9 10 13 12 10 11 11 11
14 15 15 15 15 15 15 14 14 12 11 15 14 13 13 13 13 13 13 13 12 12 11 10 11 11 11 11 10 9 10 8 5 6 7 8 8 9 11 13 10 10 10 9 9
14 14 15 15 15 14 14 14 11 11 15 15 14 13 13 13 13 11 12 11 11 13 12 12 10 10 11 12 10 11 9 9 9 7 9 6 7 9 11 9 7 7 5 6 7
14 14 14 14 14 13 14 11 13 13 12 14 13 13 13 12 12 12 11 10 9 11 9 11 11 10 9 11 10 8 9 9 11 10 9 7 8 10 8 5 4 3 2 3 4
13 13 14 13 12 13 13 9 11 11 14 14 13 13 12 12 12 12 10 10 10 9 12 9 10 9 9 10 11 9 8 9 10 7 6 8 8 9 6 4 2 1 1 1 1
12 13 13 12 12 12 9 9 11 11 13 13 13 12 11 12 11 10 10 10 12 8 11 11 11 10 9 10 8 9 8 9 6 10 8 8 8 9 7 6 2 0 -1 -2 -1
11 11 12 11 12 12 8 7 10 12 13 11 11 11 10 12 9 9 11 12 11 10 9 9 9 10 9 8 8 7 7 8 7 6 8 8 10 7 8 6 3 -1 -2 -2 -2
8 7 11 11 10 5 6 8 11 11 11 10 10 9 9 9 9 8 9 12 12 9 9 9 7 7 8 8 8 8 7 8 9 9 7 6 11 4 4 3 1 -2 -3 -3 -3
5 6 9 10 7 6 7 8 10 11 10 10 10 8 9 9 10 8 9 11 11 9 8 8 7 7 9 8 7 7 7 7 8 7 10 8 9 2 1 0 -0 -2 -3 -4 -4
5 6 9 8 7 7 7 7 8 11 9 10 9 9 9 8 7 9 9 10 10 10 11 10 7 9 10 10 7 6 7 6 9 8 8 8 10 5 2 1 -2 -2 -3 -4 -5
5 6 5 5 6 6 6 7 8 8 9 9 9 8 8 8 8 8 8 8 9 10 8 9 9 8 9 9 9 9 9 7 8 8 7 9 10 10 7 3 -0 -2 -4 -5 -5
3 3 2 3 5 6 7 8 8 8 8 9 9 9 9 8 8 8 9 9 9 7 6 6 7 7 6 7 7 8 8 8 8 8 9 7 7 9 -1 1 -2 -3 -5 -6 -6
1 1 0 2 4 5 5 2 3 1 4 4 3 4 5 7 4 4 7 9 10 9 7 6 6 6 8 8 8 8 8 8 8 8 8 7 9 -2 -2 -2 -3 -4 -5 -7 -7
Height
1500 1501 1501 1501 1501 1501 1502 1502 1502 1502 1502 1503 1502 1501 1500 1500 1499 1498 1497 1496 1494 1494 1495 1495 1495 1495 1495 1495 1496 1497 1506 1511 1503 1508 1499 1498 1499 1498 1498 1498 1499 1498 1497 1498 1498
1502 1502 1501 1501 1501 1501 1501 1501 1501 1501 1502 1502 1501 1500 1500 1499 1498 1497 1496 1494 1494 1494 1494 1494 1494 1495 1495 1495 1496 1497 1507 1500 1495 1496 1496 1496 1497 1496 1497 1496 1495 1494 1494 1495 1496
1503 1502 1501 1501 1501 1501 1500 1501 1501 1501 1501 1501 1501 1500 1499 1498 1499 1496 1495 1494 1493 1493 1493 1493 1494 1494 1494 1495 1495 1496 1500 1494 1493 1493 1493 1494 1494 1494 1493 1493 1488 1488 1489 1492 1493
1504 1503 1502 1501 1501 1500 1500 1501 1501 1501 1501 1501 1500 1499 1499 1498 1501 1494 1494 1493 1492 1492 1492 1493 1494 1494 1494 1495 1494 1496 1493 1493 1492 1492 1492 1493 1492 1491 1489 1482 1483 1485 1487 1488 1489
1505 1504 1503 1502 1501 1501 1501 1501 1501 1501 1501 1501 1500 1499 1498 1497 1495 1493 1492 1492 1491 1491 1491 1492 1493 1493 1494 1493 1493 1493 1492 1492 1491 1490 1490 1490 1489 1490 1480 1479 1481 1482 1483 1483 1485
1506 1504 1502 1502 1501 1501 1501 1501 1501 1500 1500 1500 1499 1498 1497 1497 1493 1492 1491 1491 1491 1490 1490 1490 1490 1491 1492 1492 1493 1492 1491 1489 1488 1488 1488 1488 1487 1487 1473 1473 1474 1477 1478 1480 1481
1506 1504 1503 1501 1501 1500 1500 1500 1500 1500 1499 1499 1497 1496 1495 1494 1491 1491 1490 1490 1489 1490 1489 1489 1489 1490 1491 1492 1491 1490 1491 1488 1486 1486 1487 1487 1485 1480 1470 1472 1472 1473 1475 1476 1478
1508 1505 1502 1500 1499 1499 1499 1499 1499 1498 1498 1497 1496 1495 1492 1490 1490 1490 1489 1489 1489 1489 1489 1488 1489 1489 1490 1491 1491 1492 1493 1495 1484 1485 1486 1487 1485 1468 1468 1469 1469 1469 1470 1471 1473
1509 1505 1502 1500 1498 1498 1498 1497 1496 1496 1495 1495 1495 1494 1490 1488 1488 1488 1488 1487 1487 1488 1488 1488 1488 1489 1490 1493 1498 1497 1498 1495 1490 1484 1485 1487 1480 1467 1466 1467 1464 1464 1465 1466 1468
1509 1506 1503 1500 1498 1497 1495 1494 1493 1493 1493 1492 1492 1495 1489 1487 1487 1486 1486 1486 1486 1486 1488 1488 1488 1491 1493 1496 1503 1495 1494 1493 1494 1485 1485 1485 1477 1461 1462 1462 1458 1456 1458 1459 1462
1509 1506 1502 1499 1498 1496 1494 1493 1495 1493 1489 1486 1486 1485 1485 1485 1485 1484 1484 1485 1484 1485 1488 1487 1492 1494 1487 1488 1486 1487 1492 1494 1488 1483 1484 1482 1478 1460 1449 1453 1451 1449 1449 1451 1456
1509 1506 1503 1500 1498 1496 1494 1493 1492 1493 1486 1482 1482 1482 1482 1483 1483 1482 1484 1485 1484 1486 1486 1491 1492 1481 1482 1485 1487 1489 1492 1494 1486 1483 1484 1479 1475 1459 1446 1445 1444 1443 1442 1446 1451
1509 1506 1503 1500 1498 1497 1495 1494 1492 1490 1488 1480 1479 1479 1480 1482 1480 1480 1482 1482 1482 1484 1486 1490 1481 1480 1481 1485 1488 1490 1492 1490 1487 1485 1483 1485 1473 1460 1444 1442 1441 1440 1440 1441 1444
1509 1506 1503 1500 1500 1497 1495 1493 1491 1490 1495 1481 1478 1478 1479 1479 1479 1478 1479 1482 1482 1483 1484 1485 1480 1480 1482 1484 1487 1489 1483 1483 1485 1490 1495 1486 1483 1465 1448 1444 1440 1438 1438 1439 1441
1509 1506 1503 1500 1498 1497 1496 1492 1491 1490 1518 1479 1477 1477 1477 1479 1479 1477 1478 1479 1480 1480 1483 1478 1480 1482 1483 1480 1481 1482 1481 1484 1487 1492 1496 1492 1497 1465 1451 1441 1440 1437 1439 1439 1440
1508 1505 1502 1499 1497 1496 1494 1492 1491 1501 1513 1476 1475 1476 1477 1476 1476 1476 1477 1479 1479 1479 1480 1478 1476 1476 1474 1475 1478 1480 1484 1490 1498 1499 1502 1482 1486 1467 1449 1440 1441 1440 1441 1441 1442
1507 1503 1500 1498 1496 1494 1493 1493 1504 1510 1479 1477 1475 1475 1476 1475 1474 1474 1476 1478 1481 1482 1483 1476 1475 1471 1471 1474 1478 1479 1486 1497 1495 1501 1486 1485 1488 1455 1440 1442 1444 1443 1443 1442 1443
1505 1502 1498 1496 1494 1493 1493 1495 1504 1488 1483 1473 1474 1475 1477 1474 1472 1473 1475 1478 1473 1475 1485 1483 1482 1470 1467 1467 1471 1480 1482 1490 1487 1487 1480 1484 1471 1443 1440 1443 1444 1443 1444 1444 1444
1501 1499 1495 1493 1492 1492 1493 1504 1495 1486 1475 1475 1476 1478 1477 1473 1474 1474 1476 1473 1465 1467 1475 1484 1476 1464 1464 1464 1466 1475 1481 1474 1477 1486 1493 1465 1452 1440 1442 1443 1444 1445 1445 1446 1447
1499 1495 1492 1491 1491 1491 1493 1494 1483 1475 1474 1474 1479 1475 1479 1472 1475 1476 1470 1461 1460 1459 1460 1464 1472 1462 1465 1465 1468 1468 1470 1480 1488 1481 1481 1463 1455 1441 1441 1439 1443 1446 1447 1448 1448
1498 1493 1491 1490 1490 1490 1495 1490 1478 1472 1474 1476 1474 1473 1473 1470 1473 1474 1463 1457 1455 1459 1461 1463 1468 1464 1465 1466 1464 1473 1473 1473 1476 1477 1472 1466 1438 1427 1427 1430 1438 1443 1446 1448 1449
1498 1497 1490 1489 1492 1490 1489 1481 1477 1472 1472 1471 1470 1470 1470 1468 1468 1471 1465 1455 1451 1453 1461 1458 1467 1468 1459 1451 1451 1453 1456 1456 1461 1461 1464 1463 1419 1429 1429 1432 1436 1443 1445 1447 1449
1499 1494 1487 1487 1490 1489 1482 1479 1475 1472 1471 1469 1468 1466 1464 1465 1467 1460 1455 1449 1449 1450 1454 1455 1463 1466 1452 1455 1455 1454 1453 1451 1450 1452 1437 1451 1423 1433 1433 1435 1437 1439 1443 1445 1446
1501 1496 1486 1483 1483 1484 1483 1478 1475 1470 1468 1466 1463 1462 1463 1462 1460 1453 1452 1447 1447 1446 1444 1445 1453 1451 1445 1438 1446 1453 1447 1446 1441 1442 1438 1425 1419 1425 1430 1432 1436 1437 1440 1442 1444
1500 1493 1489 1485 1482 1483 1483 1479 1475 1474 1469 1467 1461 1462 1462 1460 1457 1453 1451 1447 1444 1443 1443 1442 1441 1445 1431 1430 1434 1432 1431 1434 1432 1429 1432 1407 1414 1400 1411 1417 1422 1429 1434 1438 1442
1501 1498 1494 1490 1486 1482 1480 1473 1472 1470 1470 1464 1463 1461 1459 1455 1455 1449 1450 1446 1441 1440 1440 1438 1432 1437 1431 1428 1430 1427 1420 1422 1419 1414 1414 1414 1401 1401 1412 1412 1420 1424 1430 1435 1438
1502 1501 1500 1494 1490 1486 1483 1485 1480 1483 1473 1468 1472 1469 1459 1453 1454 1446 1440 1433 1432 1429 1432 1434 1434 1425 1414 1418 1417 1410 1395 1401 1399 1399 1398 1398 1382 1402 1414 1415 1420 1424 1429 1435 1439
Wind_Speed
2 3 4 4 4 4 4 4 5 5 5 8 9 8 7 5 4 5 3 4 3 2 2 3 5 2 2 2 2 2 4 2 4 6 4 4 4 5 4 5 10 10 9 7 6
2 2 2 3 3 4 4 4 3 4 5 6 7 8 8 5 6 5 4 3 2 2 4 5 3 2 2 2 1 3 3 7 4 4 4 5 7 4 4 6 8 15 17 14 11
2 1 1 2 3 3 3 3 3 4 3 3 5 5 4 4 5 3 3 2 1 1 4 4 3 2 1 1 1 3 4 3 3 5 4 3 3 6 5 6 16 18 21 19 17
5 3 1 1 2 2 3 3 4 4 3 2 4 4 4 2 3 2 2 1 1 1 3 4 3 2 2 2 2 1 3 3 2 5 4 3 3 4 16 18 8 8 13 19 20
7 4 2 1 2 3 3 4 4 5 6 3 5 5 3 5 5 4 2 2 2 2 3 5 5 3 2 2 1 2 2 4 4 5 6 5 9 8 20 24 22 20 17 19 20
10 7 4 3 3 4 4 5 5 6 8 9 9 7 5 3 3 2 3 2 2 2 3 5 4 3 2 2 2 2 4 6 5 5 6 3 3 1 7 4 9 21 19 20 22
13 9 7 6 5 6 6 7 7 6 8 8 7 6 7 8 4 2 2 3 2 2 2 3 3 4 3 1 1 1 4 5 5 3 4 2 5 9 20 7 8 13 20 21 22
16 12 11 8 7 7 8 9 9 9 6 4 6 6 6 6 6 4 3 4 4 3 2 2 2 3 2 2 3 2 3 4 1 4 1 2 9 6 10 12 14 12 16 23 26
20 16 13 8 4 5 8 9 10 12 11 11 10 6 6 5 6 5 4 3 4 3 3 2 3 2 2 3 4 5 2 3 7 7 2 4 9 6 5 13 19 18 18 23 25
19 18 16 8 6 9 8 9 10 10 11 11 10 5 6 3 5 5 5 3 4 3 2 3 1 2 2 3 4 4 3 4 5 1 2 4 16 18 21 26 29 31 23 26 28
18 18 17 10 8 9 6 5 4 4 8 7 3 4 4 5 7 5 5 3 4 3 3 1 2 6 8 6 2 2 2 5 4 3 3 7 10 19 20 17 21 26 24 25 28
18 17 17 13 6 8 5 2 2 3 8 13 14 12 10 7 4 6 6 4 3 4 2 3 7 4 3 4 2 2 2 6 6 2 3 7 11 17 21 11 11 7 10 20 25
18 17 15 14 6 8 5 5 5 7 3 4 6 6 5 7 4 5 6 3 3 3 6 6 1 4 3 3 3 3 5 4 6 5 2 6 8 6 4 4 8 8 6 11 24
19 18 16 13 5 10 5 9 9 8 4 4 3 3 4 4 3 6 5 3 1 5 5 5 1 4 3 4 7 3 5 3 2 3 3 4 7 6 7 10 6 10 6 6 16
20 19 17 13 9 7 9 10 9 3 4 2 3 3 4 4 1 3 5 3 4 4 4 6 6 4 5 7 7 5 2 2 1 2 3 2 0 8 3 6 5 6 2 2 7
20 20 18 14 10 8 9 8 3 5 6 1 2 2 1 3 2 3 3 3 1 0 2 6 1 5 6 2 4 5 3 4 3 2 1 5 6 5 4 2 5 5 5 3 7
21 21 20 15 8 8 7 4 5 4 2 2 4 3 2 3 3 5 4 3 5 1 4 2 4 2 3 3 1 3 4 3 4 2 6 4 2 8 4 3 3 4 9 10 11
22 21 19 13 9 6 4 4 4 4 6 2 2 1 4 5 4 3 1 3 5 3 2 4 7 8 5 6 7 6 7 5 6 4 5 2 7 6 3 6 8 11 12 13 14
23 22 17 12 4 3 2 2 7 7 3 2 1 3 3 3 4 3 6 5 7 10 8 6 6 2 3 2 3 4 5 2 1 2 2 5 7 5 4 4 5 9 11 12 13
24 21 10 3 3 4 3 5 5 4 1 1 7 7 6 4 3 4 5 4 4 9 1 3 5 2 2 2 2 3 3 3 2 4 6 6 6 7 7 8 5 5 9 10 11
20 10 4 5 8 3 3 7 6 8 5 6 6 5 8 5 7 5 5 3 4 3 4 4 4 3 4 7 9 2 2 2 2 4 5 5 7 6 7 8 10 7 11 11 12
11 3 8 13 3 1 2 4 3 4 3 5 3 7 7 7 6 6 9 8 9 10 7 6 5 6 12 3 2 4 9 10 6 7 5 3 18 3 2 5 13 13 14 12 11
14 8 7 2 2 3 5 5 5 3 4 3 4 6 3 6 4 8 6 6 11 9 9 7 4 4 8 2 3 5 5 5 2 2 19 7 10 1 5 6 13 18 18 13 12
7 4 5 5 3 1 3 6 4 6 5 6 5 3 2 5 6 5 4 4 8 7 9 11 6 8 17 12 4 5 7 7 12 8 8 20 22 8 8 10 10 16 16 15 13
3 4 4 4 4 3 3 5 14 12 6 4 3 4 6 5 4 7 6 4 5 7 6 7 18 9 19 20 15 18 19 12 15 17 11 21 18 21 14 17 20 21 20 18 15
6 8 11 9 16 10 8 7 14 13 10 15 14 14 17 20 16 21 17 16 15 3 6 4 14 9 19 13 13 19 25 22 24 25 21 24 30 21 6 17 17 21 21 19 18
12 9 5 6 8 9 4 8 12 12 10 15 20 18 11 14 29 31 30 28 23 13 8 6 5 6 16 16 16 17 27 27 24 19 19 22 29 6 6 10 15 18 19 19 15
Wind_Direction
149 187 205 221 246 247 252 254 243 245 251 256 277 294 306 270 260 348 280 317 290 223 191 175 164 167 175 123 138 154 70 192 213 158 234 178 185 198 220 212 204 208 227 228 209
92 149 204 234 242 239 245 247 244 245 255 269 287 291 292 270 261 285 323 344 328 228 208 184 182 231 186 152 179 100 127 218 189 189 200 200 196 205 203 212 229 230 232 233 223
51 59 235 236 233 238 245 242 234 235 245 283 318 301 294 270 267 252 316 346 14 209 194 191 208 196 168 162 223 164 196 202 230 215 204 201 231 221 203 243 226 230 236 224 218
30 27 17 232 227 237 238 226 217 217 210 299 340 325 259 269 230 281 300 309 21 215 202 202 213 205 145 212 184 244 232 209 247 212 190 210 238 241 217 241 249 237 247 230 217
23 14 345 275 251 248 238 225 224 240 226 278 319 313 276 259 257 289 276 259 286 284 228 220 221 190 205 198 238 189 244 227 249 234 238 247 247 245 262 260 255 255 239 223 219
17 10 349 314 286 257 236 234 251 254 252 277 295 293 274 263 271 278 256 245 250 237 228 211 215 191 164 199 181 244 265 265 271 240 235 233 254 165 267 216 229 232 230 220 221
13 3 346 317 283 269 257 256 256 264 276 279 292 287 270 257 253 305 270 230 209 201 186 172 181 190 173 204 249 277 320 308 218 220 233 223 271 230 244 227 240 230 228 225 228
16 7 353 325 287 273 266 263 260 266 265 310 293 293 262 240 249 257 308 240 219 225 199 178 165 171 199 159 19 42 56 1 216 154 247 143 271 277 236 225 239 243 237 228 225
15 9 4 355 348 291 279 273 270 261 263 275 285 269 264 240 243 249 271 255 234 228 224 211 187 173 137 96 8 7 243 236 312 200 142 176 273 247 256 234 249 254 248 234 226
10 7 2 354 341 328 302 280 272 263 262 266 251 274 237 231 228 258 259 262 214 212 185 192 137 78 45 97 230 228 279 250 239 237 209 250 266 279 257 255 254 267 262 238 226
0 1 1 358 352 346 333 306 283 265 234 224 197 245 247 246 263 253 223 231 201 189 197 33 75 222 222 202 172 150 198 251 253 266 269 234 268 283 290 240 253 262 256 237 227
353 352 354 355 341 357 350 307 356 301 299 245 242 248 252 255 265 227 218 213 179 208 123 17 237 220 118 142 144 152 247 262 283 279 196 304 277 277 282 267 257 273 255 228 222
352 350 347 349 325 351 1 11 342 330 267 259 224 234 227 222 242 218 199 191 181 188 195 187 245 118 135 157 183 218 198 229 238 332 266 322 282 307 295 275 282 270 276 225 219
351 351 348 344 332 338 337 344 337 333 43 251 228 218 201 209 268 205 204 210 223 211 169 232 253 173 180 230 155 269 206 171 253 36 255 4 289 305 290 300 272 270 248 233 213
348 347 347 345 327 328 328 333 332 340 350 187 188 179 197 203 283 217 209 197 221 200 132 254 169 185 197 218 163 223 105 138 96 155 9 277 188 268 311 304 343 344 262 230 198
345 343 342 337 323 313 326 333 338 40 259 257 159 203 181 198 223 164 180 201 164 155 243 245 262 189 211 129 166 134 96 61 61 100 316 216 170 273 231 227 312 3 71 90 156
341 340 337 329 316 312 324 322 28 153 338 242 235 180 230 219 238 179 179 187 193 149 249 281 222 224 174 126 51 125 70 318 326 1 230 147 179 242 239 320 288 328 97 108 132
334 334 330 323 310 303 308 49 205 243 243 334 92 108 220 169 240 190 181 262 226 135 127 207 307 182 178 201 184 179 170 168 246 227 262 128 238 247 131 89 88 102 114 117 120
332 333 325 312 295 305 198 129 211 211 242 206 14 215 265 245 199 172 214 218 218 175 186 179 265 155 189 151 151 179 184 196 166 117 352 226 284 276 141 111 92 97 112 103 111
338 335 312 287 304 325 93 232 240 217 198 165 205 182 223 220 187 186 210 205 237 193 63 220 291 194 141 114 42 166 164 79 11 248 245 270 269 239 224 202 158 124 108 113 116
340 330 317 306 312 261 205 231 273 267 222 191 226 248 223 220 205 210 235 257 212 144 175 157 167 241 130 196 185 129 217 216 178 172 213 266 260 215 218 183 170 144 143 136 125
355 334 295 294 313 160 222 215 297 281 236 264 222 221 208 209 226 233 224 220 182 157 177 210 172 234 218 237 195 193 203 179 205 234 238 256 264 7 62 122 134 137 145 142 134
333 287 290 279 227 251 282 277 255 258 229 221 259 212 182 215 239 205 224 244 205 169 179 186 217 309 309 23 14 229 210 216 314 10 243 238 253 112 111 118 148 147 156 151 152
324 307 286 232 249 219 289 267 269 287 266 248 253 210 178 239 230 266 230 265 210 225 217 167 189 204 254 250 148 208 221 211 220 239 245 234 262 214 201 182 168 163 160 157 159
244 253 297 296 319 309 316 294 293 288 235 285 271 225 235 271 260 237 237 276 239 238 211 181 256 231 256 260 258 259 258 231 229 235 242 261 241 255 216 195 183 166 158 155 152
326 351 340 309 315 285 286 266 291 306 307 274 269 308 301 269 260 276 281 271 264 184 197 203 247 222 255 260 241 253 253 246 246 249 250 252 260 265 76 146 155 159 155 148 148
346 325 328 305 316 309 316 2 343 5 300 348 342 323 310 311 330 315 293 266 259 232 215 186 231 198 259 270 261 252 246 246 247 243 234 244 252 127 154 145 145 142 142 139 141